Location: Ku?niki
(51.4449°N, 17.8974°E)
Time: 20:46:25
(UTC+00:00)

ITUPSAT 1 - Visible Passes

Search period start: 27 June 2022 00:00
Search period end: 07 July 2022 00:00
Orbit: 700 x 712 km, 98.6° (Epoch: 27 June)

Date Brightness Start Highest point End Pass type
(mag) Time Alt. Az. Time Alt. Az. Time Alt. Az.
27 Jun ? 21:13:05 10° NNW 21:15:55 16° NW 21:18:42 10° W visible
28 Jun ? 20:18:07 10° N 20:22:31 37° WNW 20:26:54 10° SW visible
29 Jun ? 21:02:43 10° NNW 21:05:58 19° NW 21:09:14 10° W visible
30 Jun ? 20:07:57 10° N 20:12:31 45° WNW 20:17:03 10° SW visible
01 Jul ? 20:52:24 10° N 20:56:01 22° WNW 20:59:38 10° WSW visible
02 Jul ? 19:57:48 10° N 20:02:30 55° WNW 20:07:10 10° SW visible
02 Jul ? 21:38:03 10° NNW 21:39:17 11° NW 21:40:30 10° WNW visible
03 Jul ? 20:42:08 10° N 20:46:04 26° WNW 20:49:59 10° WSW visible
04 Jul ? 19:47:40 10° N 19:52:26 67° WNW 19:57:12 10° SSW visible
04 Jul ? 21:27:14 10° NNW 21:29:22 13° NW 21:31:31 10° WNW visible
05 Jul ? 20:31:53 10° N 20:36:04 30° WNW 20:40:14 10° WSW visible
06 Jul ? 21:16:43 10° NNW 21:19:26 15° NW 21:22:11 10° W visible
